Regional Weather Roundup
Issued by NWS

Home | Current Version | Previous Version | Graphics & Text | Print | Product List | Glossary On
Versions: 1 2 3 4 5 6 7 8 9 10 11 12 13 14 15 16 17 18 19 20 21 22 23 24 25 26 27 28 29 30 31 32 33 34 35 36 37 38 39 40 41 42 43 44 45 46 47 48 49 50
000
ASUS43 KMPX 302101
RWRMN
WEATHER ROUNDUP FOR MINNESOTA
NATIONAL WEATHER SERVICE TWIN CITIES/CHANHASSEN MN
400 PM CDT THU OCT 30 2014


NOTE: "FAIR" INDICATES FEW OR NO CLOUDS BELOW 12,000 FEET WITH NO
SIGNIFICANT WEATHER AND/OR OBSTRUCTIONS TO VISIBILITY. N/A MEANS
CURRENT SKY AND/OR WEATHER CONDITIONS ARE NOT AVAILABLE.

MNZ060>063-068>070-302200-
   Twin Cities Metro

CITY           SKY/WX    TMP DP  RH WIND       PRES   REMARKS
TWIN CITIES    CLOUDY    48  35  60 NW13      30.12R
ST PAUL        CLOUDY    47  35  63 N9        30.13R
CRYSTAL        CLOUDY    48  36  63 NW9       30.12R
BLAINE         CLOUDY    48  37  66 NW13      30.12R
LAKEVILLE      CLOUDY    48  37  66 NW8       30.10R
EDEN PRAIRIE   CLOUDY    49  37  63 NW9       30.11R
SOUTH ST PAUL  CLOUDY    49  35  59 N9        30.11R
LAKE ELMO      CLOUDY    46  36  66 N10       30.12R
$$
MNZ001>005-007-008-013>017-022>024-027-028-302200-
   Northwest Minnesota

CITY           SKY/WX    TMP DP  RH WIND       PRES   REMARKS
BEMIDJI        CLOUDY    34  26  74 N20       30.25R WCI  22
HALLOCK        SUNNY     37  19  48 N20G29    30.37R
ROSEAU         FLURRIES  36  25  64 N20G28    30.33R
WARROAD        PTSUNNY   34  19  55 NW21G31   30.32R WCI  22
THIEF RVR FALL CLOUDY    36  19  51 N22G32    30.33R
CROOKSTON      CLOUDY    37  23  56 N23G35    30.37R
FOSSTON        PTSUNNY   34  25  69 N23G30    30.31R WCI  22
DETROIT LAKES  PTSUNNY   36  30  80 N16G33    30.29R
MOORHEAD       CLOUDY    37  30  75 N26       30.35R
PARK RAPIDS    CLOUDY    36  26  67 NW25G35   30.23R
MAHNOMEN       CLOUDY    35  28  77 N24G31    30.29R WCI  23
$$
MNZ006-009>011-018-025>026-302200-
   North Central Minnesota

CITY           SKY/WX    TMP DP  RH WIND       PRES   REMARKS
BAUDETTE       MOSUNNY   35  17  47 N23G37    30.25R WCI  23
FLAG ISLAND    MOSUNNY   34  19  55 N24G35    30.30R WCI  21
INTL FALLS     PTSUNNY   33  24  69 NW20G31   30.18R WCI  21
WASKISH        PTSUNNY   37  21  52 NW20G30   30.25R
BIG FORK       MOSUNNY   37  27  65 NW9G22    30.18R
LONGVILLE      CLOUDY    37  28  70 NW9       30.18R
GRAND RAPIDS   CLOUDY    37  30  75 NW14      30.14S
CRANE LAKE     SNOW      32  30  93 N13G31    30.14R VSB 1/2 WCI  22
ORR            SNOW      34  28  80 NW12G23   30.11R VSB 1/2 WCI  25
COOK           MIX PCPN  34  32  93 NW7G21    30.12R WCI  28
WALKER         CLOUDY    37  28  69 NW10G18   30.20R
$$
MNZ012-019>021-037-302200-
   Northeast Minnesota

CITY           SKY/WX    TMP DP  RH WIND       PRES   REMARKS
DULUTH         PTSUNNY   40  33  76 NW12G22   30.08R
ELY            CLOUDY    36  34  93 NW8G18    30.07S
HIBBING        CLOUDY    39  29  67 NW16G28   30.12R
EVELETH        LGT RAIN  36  32  87 NW20G26   30.12R
DULUTH HARBOR  PTSUNNY   45  36  70 NW12      30.11R
TWO HARBORS    PTSUNNY   45  36  70 W6        30.05R
SILVER BAY     MOSUNNY   43  34  70 W7        30.04R
GRAND MARAIS     N/A     41  32  70 N12G21    30.02S
G MARAIS ARPRT PTSUNNY   34  28  80 NW13G18   30.01R WCI  25
$$
MNZ029>031-032-039>041-046>048-054>057-064-302200-
   West Central Minnesota

CITY           SKY/WX    TMP DP  RH WIND       PRES   REMARKS
FERGUS FALLS   CLOUDY    37  28  70 N21G35    30.30R
WHEATON        CLOUDY    36  30  80 N15G26    30.32R
MORRIS         CLOUDY    41  34  75 N25       30.24R
ALEXANDRIA     CLOUDY    40  30  67 N23G30    30.23R
ELBOW LAKE     CLOUDY    38  31  76 N21G29    30.26R
WADENA         CLOUDY    37  28  70 N18G28    30.22R
GLENWOOD       CLOUDY    41  34  75 NW17      30.21R
APPLETON       CLOUDY    43  34  70 N24G31    30.25R
BENSON         CLOUDY    43  36  75 N18G26    30.23R
ORTONVILLE     CLOUDY    39  30  70 N22G31    30.27R
MADISON        PTSUNNY   45  37  76 N20G28    30.26R
WILLMAR        CLOUDY    46  36  66 NW21      30.20R
$$
MNZ033>034-036-042>043-049>051-058-059-302200-
   Central Minnesota

CITY           SKY/WX    TMP DP  RH WIND       PRES   REMARKS
ST CLOUD       CLOUDY    45  34  65 NW16      30.16R
SAUK CENTRE    CLOUDY    41  32  71 N16G22    30.20R
PAYNESVILLE    CLOUDY    40  33  75 NW15G22   30.19R
AITKIN         CLOUDY    43  34  70 NW10G21   30.15R
PINE RIVER     CLOUDY    37  28  70 NW13G20   30.22R
BRAINERD       CLOUDY    39  29  67 N21G26    30.18R
STAPLES        CLOUDY    37  28  70 NW16G25   30.21R
LONG PRAIRIE   CLOUDY    37  32  81 NW16G24   30.20R
LITTLE FALLS   CLOUDY    41  32  70 NW9G17    30.18R
LITCHFIELD     CLOUDY    46  39  76 N15       30.17R
BUFFALO        CLOUDY    45  36  70 NW12      30.16R
MAPLE LAKE     CLOUDY    45  38  77 NW15      30.17R
$$
MNZ037-044-045-052-053-302200-
   East Central Minnesota

CITY           SKY/WX    TMP DP  RH WIND       PRES   REMARKS
PRINCETON      CLOUDY    45  36  70 NW12G18   30.15R
MORA           CLOUDY    41  32  70 NW13G22   30.16R
CAMBRIDGE      CLOUDY    45  34  65 N9        30.13R
RUSH CITY      CLOUDY    42  34  72 NW9       30.14R
MOOSE LAKE     CLOUDY    41  32  70 N10       30.11R
HINCKLEY       CLOUDY    43  32  65 NW13      30.13R
CLOQUET        MOSUNNY   41  30  65 NW10G18   30.10R
MCGREGOR       CLOUDY    37  34  87 NW20      30.15R
$$
MNZ071>073-080-081-089-090-097-098-302200-
   Southwest Minnesota

CITY           SKY/WX    TMP DP  RH WIND       PRES   REMARKS
MONTEVIDEO     CLOUDY    43  39  87 N16G25    30.23R
GRANITE FALLS  CLOUDY    44  39  81 N17G23    30.22R
CANBY          CLOUDY    41  37  86 N20G28    30.26R
MARSHALL       CLOUDY    43  36  75 N21G28    30.20R
REDWOOD FALLS  CLOUDY    47  39  74 N15G23    30.17R
OLIVIA         CLOUDY    46  39  76 N17G24    30.17R
PIPESTONE      CLOUDY    45  37  76 N17G25    30.19R
WINDOM         CLOUDY    50  37  62 NW22      30.15R
WORTHINGTON    CLOUDY    46  37  71 N22G31    30.17R
JACKSON        CLOUDY    52  36  54 N15G26    30.13R
TRACY          CLOUDY    44  40  86 N18G24    30.20R FOG
SLAYTON        CLOUDY    44  39  84 N20G26    30.18R
$$
MNZ065>067-074>077-082>085-091>093-302200-
   South Central Minnesota

CITY           SKY/WX    TMP DP  RH WIND       PRES   REMARKS
MANKATO        CLOUDY    50  34  53 N16       30.11R
NEW ULM        MOSUNNY   48  41  76 N15G21    30.13R
ST JAMES       CLOUDY    52  39  62 NW13G23   30.15R
FAIRMONT       CLOUDY    52  28  40 N18G25    30.11R
GLENCOE        PTSUNNY   48  38  68 N12       30.14R
FARIBAULT      CLOUDY    48  36  61 N6        30.11R
OWATONNA       MOSUNNY   48  36  61 NW8       30.10R
WASECA         CLOUDY    46  32  57 N6        30.12R
ALBERT LEA     CLOUDY    52  37  58 N12       30.08R
$$
MNZ078>079-086>088-094>096-302200-
   Southeast Minnesota

CITY           SKY/WX    TMP DP  RH WIND       PRES   REMARKS
ROCHESTER      CLOUDY    46  38  73 N7        30.09R
RED WING       PTSUNNY   50  37  62 NW5       30.08R
STANTON        CLOUDY    48  37  66 NW7       30.09R
DODGE CENTER   CLOUDY    46  39  76 N6        30.09R
WINONA         CLOUDY    48  39  71 CALM      30.07S
AUSTIN         CLOUDY    48  37  66 N6        30.08R
PRESTON        CLOUDY    46  37  72 N6        30.07R
$$
ABBREVIATIONS USED IN REMARKS
   TC - TEMPERATURES IN CELSIUS
  WCI - WIND CHILL INDEX
   HX - HEAT INDEX
  VSB - VISIBILITY
$$



USA.gov is the U.S. government's official web portal to all federal, state and local government web resources and services.